• Em Portugal
  • Lista de países
  • Para 7 dias
  • Temperatura da água
  • Mapas de satélite
  • Mapa do tempo
  • Widgets de tempo
  • user-avatar
    Iniciar Sessão

    Previsão horária em São Luís

    Hoje, 22 Novembro, Quarta-feira

    Tempo Temperatura Precipitação Vento Pressão Humidade
    00:00 +28°C° 0 mm 3 m/s 757 mmHg 81%
    01:00 +28°C° 0 mm 3 m/s 757 mmHg 81%
    02:00 +28°C° 0 mm 3 m/s 756 mmHg 82%
    03:00 +28°C° 0 mm 3 m/s 756 mmHg 82%
    04:00 +28°C° 0,1 mm 3 m/s 756 mmHg 82%
    05:00 +28°C° 0,1 mm 3 m/s 757 mmHg 82%
    06:00 +28°C° 0,1 mm 3 m/s 757 mmHg 83%
    07:00 +29°C° 0,2 mm 3 m/s 757 mmHg 76%
    08:00 +31°C° 0,2 mm 3 m/s 757 mmHg 70%
    09:00 +33°C° 0,2 mm 4 m/s 758 mmHg 64%
    10:00 +34°C° 0,5 mm 4 m/s 757 mmHg 63%
    11:00 +34°C° 0,5 mm 4 m/s 757 mmHg 61%
    12:00 +34°C° 0,5 mm 5 m/s 757 mmHg 60%
    13:00 +34°C° 0,3 mm 5 m/s 756 mmHg 61%
    14:00 +34°C° 0,3 mm 5 m/s 756 mmHg 62%
    15:00 +34°C° 0,3 mm 5 m/s 755 mmHg 63%
    16:00 +32°C° 0,1 mm 5 m/s 755 mmHg 67%
    17:00 +30°C° 0,1 mm 5 m/s 755 mmHg 72%
    18:00 +29°C° 0,1 mm 5 m/s 756 mmHg 76%
    19:00 +29°C° 0 mm 4 m/s 756 mmHg 76%
    20:00 +29°C° 0 mm 4 m/s 757 mmHg 76%
    21:00 +29°C° 0 mm 4 m/s 757 mmHg 77%
    22:00 +28°C° 0 mm 4 m/s 757 mmHg 77%
    23:00 +28°C° 0 mm 4 m/s 757 mmHg 78%

    Amanhã, 23 Novembro, Quinta-feira

    Tempo Temperatura Precipitação Vento Pressão Humidade
    00:00 +28°C° 0 mm 4 m/s 757 mmHg 78%
    01:00 +28°C° 0 mm 4 m/s 757 mmHg 79%
    02:00 +28°C° 0 mm 4 m/s 756 mmHg 80%
    03:00 +28°C° 0 mm 3 m/s 756 mmHg 81%
    04:00 +28°C° 0 mm 3 m/s 756 mmHg 81%
    05:00 +28°C° 0 mm 3 m/s 757 mmHg 81%
    06:00 +28°C° 0 mm 3 m/s 757 mmHg 81%
    07:00 +29°C° 0 mm 4 m/s 758 mmHg 75%
    08:00 +30°C° 0 mm 4 m/s 758 mmHg 69%
    09:00 +33°C° 0 mm 4 m/s 759 mmHg 63%
    10:00 +34°C° 0 mm 4 m/s 758 mmHg 60%
    11:00 +34°C° 0 mm 4 m/s 758 mmHg 56%
    12:00 +35°C° 0 mm 5 m/s 758 mmHg 53%
    13:00 +35°C° 0,1 mm 5 m/s 757 mmHg 55%
    14:00 +34°C° 0,1 mm 5 m/s 756 mmHg 57%
    15:00 +34°C° 0,1 mm 5 m/s 755 mmHg 59%
    16:00 +33°C° 0,1 mm 5 m/s 755 mmHg 64%
    17:00 +32°C° 0,1 mm 5 m/s 756 mmHg 68%
    18:00 +30°C° 0,1 mm 4 m/s 756 mmHg 72%
    19:00 +29°C° 0 mm 4 m/s 757 mmHg 73%
    20:00 +29°C° 0 mm 5 m/s 757 mmHg 75%
    21:00 +29°C° 0 mm 5 m/s 758 mmHg 77%
    22:00 +29°C° 0 mm 4 m/s 758 mmHg 77%
    23:00 +29°C° 0 mm 4 m/s 758 mmHg 78%

    Depois de amanhã, 24 Novembro, Sexta-feira

    Tempo Temperatura Precipitação Vento Pressão Humidade
    00:00 +28°C° 0 mm 4 m/s 757 mmHg 78%
    01:00 +28°C° 0 mm 4 m/s 757 mmHg 78%
    02:00 +28°C° 0 mm 4 m/s 756 mmHg 79%
    03:00 +28°C° 0 mm 4 m/s 756 mmHg 79%
    04:00 +28°C° 0 mm 4 m/s 756 mmHg 79%
    05:00 +28°C° 0 mm 4 m/s 757 mmHg 79%
    06:00 +28°C° 0 mm 4 m/s 757 mmHg 79%
    07:00 +29°C° 0 mm 4 m/s 758 mmHg 75%
    08:00 +30°C° 0 mm 5 m/s 758 mmHg 70%
    09:00 +32°C° 0 mm 5 m/s 759 mmHg 65%
    10:00 +33°C° 0 mm 5 m/s 758 mmHg 61%
    11:00 +34°C° 0 mm 5 m/s 758 mmHg 56%
    12:00 +35°C° 0 mm 5 m/s 758 mmHg 51%
    13:00 +35°C° 0 mm 5 m/s 757 mmHg 52%
    14:00 +35°C° 0 mm 5 m/s 756 mmHg 54%
    15:00 +34°C° 0 mm 5 m/s 756 mmHg 55%
    16:00 +33°C° 0 mm 5 m/s 756 mmHg 59%
    17:00 +32°C° 0 mm 5 m/s 756 mmHg 63%
    18:00 +30°C° 0 mm 5 m/s 757 mmHg 68%
    19:00 +30°C° 0 mm 5 m/s 757 mmHg 70%
    20:00 +29°C° 0 mm 5 m/s 758 mmHg 73%
    21:00 +29°C° 0 mm 5 m/s 758 mmHg 75%
    22:00 +29°C° 0 mm 4 m/s 758 mmHg 76%
    23:00 +29°C° 0 mm 4 m/s 758 mmHg 77%

    25 Novembro, Sábado

    Tempo Temperatura Precipitação Vento Pressão Humidade
    00:00 +28°C° 0 mm 4 m/s 758 mmHg 77%
    01:00 +28°C° 0 mm 4 m/s 757 mmHg 78%
    02:00 +28°C° 0 mm 4 m/s 757 mmHg 79%
    03:00 +28°C° 0 mm 4 m/s 756 mmHg 80%
    04:00 +28°C° 0 mm 4 m/s 757 mmHg 80%
    05:00 +28°C° 0 mm 4 m/s 757 mmHg 81%
    06:00 +28°C° 0 mm 4 m/s 758 mmHg 82%
    07:00 +29°C° 0 mm 4 m/s 758 mmHg 75%
    08:00 +32°C° 0 mm 4 m/s 758 mmHg 68%
    09:00 +33°C° 0 mm 5 m/s 759 mmHg 62%
    10:00 +34°C° 0 mm 5 m/s 758 mmHg 57%
    11:00 +36°C° 0 mm 5 m/s 758 mmHg 52%
    12:00 +37°C° 0 mm 5 m/s 757 mmHg 47%
    13:00 +36°C° 0 mm 5 m/s 757 mmHg 49%
    14:00 +36°C° 0 mm 5 m/s 756 mmHg 52%
    15:00 +35°C° 0 mm 5 m/s 755 mmHg 54%
    16:00 +34°C° 0 mm 5 m/s 755 mmHg 60%
    17:00 +32°C° 0 mm 5 m/s 756 mmHg 66%
    18:00 +30°C° 0 mm 5 m/s 756 mmHg 72%
    19:00 +30°C° 0 mm 5 m/s 756 mmHg 74%
    20:00 +29°C° 0 mm 4 m/s 757 mmHg 76%
    21:00 +29°C° 0 mm 4 m/s 757 mmHg 78%
    22:00 +29°C° 0 mm 4 m/s 757 mmHg 78%
    23:00 +29°C° 0 mm 4 m/s 757 mmHg 79%

    26 Novembro, Domingo

    Tempo Temperatura Precipitação Vento Pressão Humidade
    00:00 +29°C° 0 mm 4 m/s 757 mmHg 80%
    01:00 +28°C° 0 mm 4 m/s 756 mmHg 80%
    02:00 +28°C° 0 mm 4 m/s 756 mmHg 81%
    03:00 +28°C° 0 mm 4 m/s 755 mmHg 82%
    04:00 +28°C° 0 mm 4 m/s 756 mmHg 81%
    05:00 +28°C° 0 mm 4 m/s 756 mmHg 81%
    06:00 +28°C° 0 mm 4 m/s 757 mmHg 81%
    07:00 +29°C° 0,1 mm 4 m/s 757 mmHg 76%
    08:00 +30°C° 0,1 mm 4 m/s 758 mmHg 71%
    09:00 +32°C° 0,1 mm 5 m/s 758 mmHg 67%
    10:00 +33°C° 0,2 mm 5 m/s 758 mmHg 63%
    11:00 +34°C° 0,2 mm 5 m/s 757 mmHg 60%
    12:00 +34°C° 0,2 mm 5 m/s 757 mmHg 57%
    13:00 +34°C° 0,1 mm 5 m/s 756 mmHg 57%
    14:00 +34°C° 0,1 mm 5 m/s 756 mmHg 56%
    15:00 +34°C° 0,1 mm 5 m/s 755 mmHg 56%
    16:00 +33°C° 0 mm 5 m/s 755 mmHg 61%
    17:00 +32°C° 0 mm 4 m/s 755 mmHg 67%
    18:00 +30°C° 0 mm 4 m/s 756 mmHg 72%
    19:00 +29°C° 0,1 mm 4 m/s 756 mmHg 74%
    20:00 +29°C° 0,1 mm 4 m/s 757 mmHg 76%
    21:00 +29°C° 0,1 mm 4 m/s 757 mmHg 78%
    22:00 +29°C° 0,3 mm 4 m/s 757 mmHg 79%
    23:00 +28°C° 0,3 mm 4 m/s 757 mmHg 79%

    27 Novembro, Segunda-feira

    Tempo Temperatura Precipitação Vento Pressão Humidade
    00:00 +28°C° 0,3 mm 4 m/s 757 mmHg 80%
    01:00 +28°C° 0,2 mm 4 m/s 756 mmHg 81%
    02:00 +28°C° 0,2 mm 4 m/s 756 mmHg 82%
    03:00 +28°C° 0,2 mm 4 m/s 756 mmHg 83%
    04:00 +28°C° 0,3 mm 4 m/s 756 mmHg 83%
    05:00 +28°C° 0,3 mm 4 m/s 756 mmHg 83%
    06:00 +28°C° 0,3 mm 4 m/s 757 mmHg 84%
    07:00 +29°C° 0 mm 4 m/s 757 mmHg 77%
    08:00 +30°C° 0 mm 5 m/s 758 mmHg 71%
    09:00 +33°C° 0 mm 5 m/s 758 mmHg 64%
    10:00 +33°C° 0,2 mm 5 m/s 758 mmHg 62%
    11:00 +34°C° 0,2 mm 5 m/s 757 mmHg 59%
    12:00 +35°C° 0,2 mm 5 m/s 757 mmHg 57%
    13:00 +35°C° 0,1 mm 5 m/s 757 mmHg 56%
    14:00 +35°C° 0,1 mm 5 m/s 756 mmHg 55%
    15:00 +35°C° 0,1 mm 5 m/s 755 mmHg 55%
    16:00 +34°C° 0 mm 5 m/s 756 mmHg 60%
    17:00 +32°C° 0 mm 5 m/s 756 mmHg 65%
    18:00 +30°C° 0 mm 4 m/s 756 mmHg 69%
    19:00 +30°C° 0 mm 4 m/s 756 mmHg 72%
    20:00 +29°C° 0 mm 5 m/s 757 mmHg 74%
    21:00 +29°C° 0 mm 5 m/s 757 mmHg 76%
    22:00 +29°C° 0 mm 5 m/s 757 mmHg 77%
    23:00 +29°C° 0 mm 4 m/s 757 mmHg 77%
    Mostrar mais